FALCON 9 DEB (44975 NORAD) Tracking and Keplerian Element Data

This shows tracking and keplerian element data for the satellite.

Feedback or suggestion? Click here.




ElementValue
Catalog44975
NameFALCON 9 DEB
Epoch Orbit1011
Epoch Day70.0074108
Epoch Year2020
RAAN69.7197
Inclination52.9845
Eccentricity0.0003282
Argument of Perigee120.8154
Mean Anonmoly239.321
Mean Motion16.28814784
Decay Rate0.0153038
L11 44975U 20001BP 20070.00741080 .01530380 12057-4 36596-3 0 9992
L22 44975 52.9845 69.7197 0003282 120.8154 239.3210 16.28814784 10111

Live tracking and technical data element details for FALCON 9 DEB (NORAD 44975). FALCON 9 DEB can be tracked NOW for your location showing map with azimuth and elevation plus other details from your city location.

Track the satellite on the map from your city or location and see movement details for azimuth, elevation, latitude, longitude, range, height, and movement on the map or in text.







IsCatalogInMostPopularTable: catalog: 44975, numindb: 20
Update: records affected: 1



GetName: 44975 FALCON 9 DEB

Hit Count: updated at: Sun, 05 Apr 2020 18:25:23 GMT